Location: Unspecified
(40.7945°N, 111.1337°W)
Time: 22:39:14
(UTC-06:00)

Altair - Pass Details

Date: 03 July 2019
Orbit: 1501 x 1683 km, 47.2° (Epoch: 16 August)

Event Time Altitude Azimuth Distance (km) Brightness Sun altitude
Rises 02:30:52 0° 291° (WNW) 4,831 10.2 -24.6°
Reaches altitude 10° 02:35:03 10° 276° (W) 3,871 9.5 -24.4°
Enters shadow 02:39:57 19° 247° (WSW) 3,211 8.8 -24.1°
